COSMOS 942

Satellite information

Favourite Embed

Satellite Type and Status

PAYLOADIN ORBIT

Key statistics

Satellite COSMOS 942 at a glance.

Uptime

17651

Days in orbit

Revolutions

≈ 12.4

Per day

Orbit

LEO

Low Earth Orbit

Inclination

74.0

Latest

Satellite identification and parameters

Extended collection of information and parameters for COSMOS 942.

Object identification

Identified? True

Debris? False

Object name: COSMOS 942

International designator: 1977-079D

Object number (NORAD): 10288

Object ID (CCSDS): 10288

Country: COMMONWEALTH OF INDEPENDENT STATES (CIS)

Current information (Y/N): Y

RCS size: MEDIUM

Orbital parameters

Period: 115.918 minutes

Inclination: 74.022 deg

SMA: 7875.19 km

Apoapsis: 1531.839 km

Periapsis: 1462.272 km

RAAN: 177.7669 deg

Eccentricy: 0.00441688

Argument of periapsis: 55.5364 deg

Mean anomaly: 53.3475 deg

Mean motion: 12.42256196 rev/day

Mean motion (dot): -0.00000003 rev/day2

B* drag term: 0.000090375447 1/REarth

Two-line elements (TLE)

Creation date: Dec. 20, 2025, 3:40 a.m.

Reference frame: TEME

Reference center: EARTH

Epoch: Dec. 19, 2025, 10:30 p.m. UTC

TLE line 0: 0 COSMOS 942

TLE line 1: 1 10288U 77079D 25353.93795603 -.00000003 00000-0 90375-4 0 9991

TLE line 2: 2 10288 74.0220 177.7669 0044169 55.5364 53.3475 12.42256196174086

Live tracking on map

Real-time ground track for satellite COSMOS 942.

In-orbit conjunctions

A list of the most updated potential collisions computed for object COSMOS 942.

Target Orbit TCA Probability of collision Miss distance Type
COSMOS 1717 LEO 2025-02-02 01:46:28 0.0002659652 118.0 (m) PAYLOAD

Associated space launch

High-resolution film-return Zenit reconnaissance satellite

COSMOS 942 was lifted into orbit during the mission ‘Soyuz U | Zenit-4MKM 4’, on board a Soyuz U space rocket.

The launch took place on Aug. 24, 1977, 2:29 p.m. from 43/4 (43R).

For more information about the launch, click the button.

Launch to space Soyuz U | Zenit-4MKM 4
Soyuz U | Zenit-4MKM 4

Agency: N/A

Status: Launch Successful

Launch date: Aug. 24, 1977, 2:29 p.m. UTC

Rocket: Soyuz U

Launch pad: 43/4 (43R)

Location: Plesetsk Cosmodrome, Russian Federation

...

Latest news about this satellite

There are no fresh news available about this satellite. Check back as we update our databases every day.


Newsletter sign-up

Weekly statistics, charts and insights to help you stay on top of the space industry.